sat.trackr.live / text

‹ back to catalog

STARLINK-34068

NORAD 63914 · 2025-095AA

PAYLOAD ACTIVE UNKNOWN

§ Identity

Operator
Country
US
Launch date
2025-05-10
Launch site
AFETR
Launch vehicle
Mass (kg)
RCS (m²)

Purposes: comms

External: N2YO · Heavens-Above · Gunter

§ Orbital elements

Epoch: 2026-09-20T23:02:01.186944Z

Period
94.27 min
Inclination
43.0012°
Eccentricity
0.0000307
Mean motion
15.27603593 rev/d
Perigee alt
482.8 km
Apogee alt
483.2 km
Semi-major
6,861.1 km
B*
4.3303e-4
RAAN
153.2741°
Arg perigee
312.5960°
Mean anomaly
47.4866°
Rev number
7,764

§ Raw data

STARLINK-340681 63914U 25095AA  26263.95973596  .00011682  00000+0  43303-3 0  99992 63914  43.0012 153.2741 0000307 312.5960  47.4866 15.27603593 77644

JSON: /api/v1/satellites/63914 · /tle

For live sub-satellite position, see the globe view (requires WebGL).

§ Visibility from observer

Set your observer location to see the next 7 days of passes ≥ 10°. The values pass through the URL so the page stays shareable.

No JS? Fill the form by hand. The geolocation button needs JavaScript.